Location: Taukkyan
(23.1052°N, 94.0030°E)
Time: 11:54:06
(UTC+00:00)

USA 186 - Pass Details

Date: 06 July 2020
Orbit: 262 x 435 km, 96.9° (Epoch: 12 August)

Event Time Altitude Azimuth Distance (km) Brightness Sun altitude
Exits shadow 13:31:03 11° 168° (SSE) 1,489 4.1 -12.4°
Maximum altitude 13:34:15 87° 80° (E) 448 1.8 -13.1°
Drops below altitude 10° 13:37:35 10° 350° (N) 1,551 5.2 -13.7°
Sets 13:39:36 0° 350° (N) 2,408 6.3 -14.1°
